{"data":{"norad_id":25867,"epoch":"2026-09-21T13:52:52.584096Z","epoch_age_seconds":-82032,"freshness":"FRESH","line1":"1 25867U 99040B   26264.57838639  .00000964  00000+0  00000+0 0  9996","line2":"2 25867  57.4713 114.1840 7687429 309.3021   0.4302  0.37796833 17684","mean_motion":0.37796833,"eccentricity":0.7687429,"inclination_deg":57.4713,"raan_deg":114.184,"arg_perigee_deg":309.3021,"mean_anomaly_deg":0.4302,"bstar":0,"rev_number":1768,"period_min":3809.8430098628,"perigee_km":12308.306066846,"apogee_km":136542.93872368,"semimajor_km":80803.759395264,"source":"CELESTRAK","updated_at":"2026-09-20T09:00:47.139960Z"}}